Date String (YYYY-MM-DD hh:mm:ss) UTC,Instrument flags,absolute air pressure of the measurement (hPa),sample flow rate (lpm),inlet stack bypass flow (lpm),air temperature of the measurement (°C),ambient temperature measured by the external sensor (°C),aerosol sample conditioner tube jacket temperature (°C),OPC LED temperature (°C),internal box temperature (°C),relative humidity of the measurement (%),span deviation,mass concentration of particles derived from Lorenz-Mie calculation of OPC scattering (μg/m³),mass concentration of particles derived from Lorenz-Mie calculation of OPC scattering (μg/m³),mass concentration of particles derived from Lorenz-Mie calculation of OPC scattering (μg/m³)
DateTimeUTC,F1_M11,P_M11,Q1_M11,Q2_M11,T1_M11,T2_M11,T3_M11,T4_M11,T5_M11,U1_M11,ZSPAN_M11,X2_M11,X0_M11,X1_M11
2023-12-29 17:00:00,SystemResetWarning,0836.1,4.99,000.00,020.2,019.7,000.0,028.2,021.7,10.0,0000.0,0000.47,0001.10,0000.35
2023-12-29 17:01:00,SystemResetWarning,0836.1,4.99,000.00,020.2,019.7,000.0,028.3,021.7,10.0,0000.0,0000.49,0000.95,0000.37
2023-12-29 17:02:00,SystemResetWarning,0836.1,5.00,000.00,020.2,019.7,000.0,028.3,021.7,9.7,0000.0,0000.51,0001.18,0000.39
2023-12-29 17:03:00,SystemResetWarning,0836.1,5.00,000.00,020.2,019.7,000.0,028.3,021.8,10.0,0000.0,0000.53,0001.31,0000.40
2023-12-29 17:04:00,SystemResetWarning,0836.1,5.01,000.00,020.2,019.8,000.0,028.3,021.8,9.8,0000.0,0000.53,0001.33,0000.40
2023-12-29 17:05:00,SystemResetWarning,0836.1,5.01,000.00,020.3,019.8,000.0,028.4,021.8,9.7,0000.0,0000.52,0001.32,0000.40
2023-12-29 17:06:00,SystemResetWarning,0836.1,5.00,000.00,020.3,019.8,000.0,028.4,021.8,9.1,0000.0,0000.54,0001.35,0000.40
2023-12-29 17:07:00,SystemResetWarning,0836.1,4.99,000.00,020.3,019.8,000.0,028.4,021.9,8.4,0000.0,0000.57,0001.43,0000.40
2023-12-29 17:08:00,SystemResetWarning,0836.1,4.99,000.00,020.3,019.9,000.0,028.4,021.9,8.6,0000.0,0000.59,0001.45,0000.40
2023-12-29 17:09:00,SystemResetWarning,0836.1,5.00,000.00,020.4,019.9,000.0,028.4,021.9,8.8,0000.0,0000.60,0001.47,0000.39
2023-12-29 17:10:00,SystemResetWarning,0836.1,5.00,000.00,020.4,019.9,000.0,028.5,021.9,8.9,0000.0,0000.62,0001.45,0000.39
2023-12-29 17:11:00,SystemResetWarning,0836.0,5.01,000.00,020.4,019.9,000.0,028.5,021.9,8.4,0000.0,0000.64,0001.49,0000.39
2023-12-29 17:12:00,SystemResetWarning,0836.0,4.99,000.00,020.4,020.0,000.0,028.5,022.0,7.9,0000.0,0000.62,0001.44,0000.37
2023-12-29 17:13:00,SystemResetWarning,0836.0,5.00,000.00,020.5,020.0,000.0,028.5,022.0,8.3,0000.0,0000.61,0001.26,0000.37
2023-12-29 17:14:00,SystemResetWarning,0836.0,5.00,000.00,020.5,020.0,000.0,028.6,022.0,8.2,0000.0,0000.64,0001.15,0000.36
2023-12-29 17:15:00,SystemResetWarning,0836.0,5.00,000.00,020.5,020.0,000.0,028.6,022.0,7.9,0000.0,0000.67,0001.22,0000.37
2023-12-29 17:16:00,SystemResetWarning,0835.9,5.00,000.00,020.5,020.0,000.0,028.6,022.1,8.0,0000.0,0000.67,0001.23,0000.36
2023-12-29 17:17:00,SystemResetWarning,0835.9,5.00,000.00,020.5,020.1,000.0,028.6,022.1,7.9,0000.0,0000.63,0001.14,0000.36
2023-12-29 17:18:00,SystemResetWarning,0835.9,5.00,000.00,020.6,020.1,000.0,028.6,022.1,7.8,0000.0,0000.58,0001.05,0000.36
2023-12-29 17:19:00,SystemResetWarning,0835.9,5.00,000.00,020.6,020.1,000.0,028.7,022.1,8.2,0000.0,0000.56,0001.02,0000.37
2023-12-29 17:20:00,SystemResetWarning,0835.9,5.00,000.00,020.6,020.1,000.0,028.7,022.1,8.1,0000.0,0000.57,0001.07,0000.37
2023-12-29 17:21:00,SystemResetWarning,0835.9,5.00,000.00,020.6,020.2,000.0,028.7,022.1,8.3,0000.0,0000.57,0001.16,0000.37
2023-12-29 17:22:00,SystemResetWarning,0835.9,5.00,000.00,020.6,020.2,000.0,028.7,022.1,8.7,0000.0,0000.55,0001.07,0000.37
2023-12-29 17:23:00,SystemResetWarning,0835.9,5.00,000.00,020.7,020.2,000.0,028.7,022.2,8.8,0000.0,0000.55,0000.96,0000.37
2023-12-29 17:24:00,SystemResetWarning,0835.9,5.00,000.00,020.7,020.2,000.0,028.8,022.2,9.1,0000.0,0000.54,0000.94,0000.37
2023-12-29 17:25:00,SystemResetWarning,0835.9,5.00,000.00,020.7,020.2,000.0,028.8,022.2,9.5,0000.0,0000.50,0000.86,0000.37
2023-12-29 17:26:00,SystemResetWarning,0835.9,5.00,000.00,020.7,020.2,000.0,028.8,022.2,8.7,0000.0,0000.47,0000.83,0000.36
2023-12-29 17:27:00,SystemResetWarning,0835.9,5.00,000.00,020.7,020.3,000.0,028.8,022.3,9.0,0000.0,0000.49,0000.98,0000.36
2023-12-29 17:28:00,SystemResetWarning,0835.9,5.00,000.00,020.8,020.3,000.0,028.8,022.3,8.5,0000.0,0000.52,0001.15,0000.36
2023-12-29 17:29:00,SystemResetWarning,0835.9,5.00,000.00,020.8,020.3,000.0,028.9,022.3,9.0,0000.0,0000.57,0001.47,0000.36
2023-12-29 17:30:00,SystemResetWarning,0835.9,5.00,000.00,020.8,020.3,000.0,028.9,022.3,8.6,0000.0,0000.59,0001.72,0000.36
2023-12-29 17:31:00,SystemResetWarning,0835.9,4.99,000.00,020.8,020.3,000.0,028.9,022.3,8.4,0000.0,0000.58,0001.70,0000.37
2023-12-29 17:32:00,SystemResetWarning,0835.9,5.00,000.00,020.8,020.4,000.0,028.9,022.4,8.2,0000.0,0000.56,0001.66,0000.38
2023-12-29 17:33:00,SystemResetWarning,0835.9,5.00,000.00,020.9,020.4,000.0,029.0,022.4,7.9,0000.0,0000.58,0001.81,0000.39
2023-12-29 17:34:00,SystemResetWarning,0835.9,5.00,000.00,020.9,020.4,000.0,029.0,022.4,7.6,0000.0,0000.61,0001.96,0000.39
2023-12-29 17:35:00,SystemResetWarning,0835.8,5.00,000.00,020.9,020.4,000.0,029.0,022.4,7.5,0000.0,0000.62,0002.00,0000.39
2023-12-29 17:36:00,SystemResetWarning,0835.8,5.00,000.00,020.9,020.4,000.0,029.0,022.5,7.8,0000.0,0000.67,0003.04,0000.40
2023-12-29 17:37:00,SystemResetWarning,0835.8,5.00,000.00,020.9,020.5,000.0,029.0,022.5,7.9,0000.0,0000.67,0003.23,0000.41
2023-12-29 17:38:00,SystemResetWarning,0835.8,5.00,000.00,021.0,020.5,000.0,029.1,022.5,7.8,0000.0,0000.69,0003.15,0000.42
2023-12-29 17:39:00,SystemResetWarning,0835.8,5.00,000.00,021.0,020.5,000.0,029.1,022.5,8.0,0000.0,0000.73,0003.21,0000.44
2023-12-29 17:40:00,SystemResetWarning,0835.8,5.00,000.00,021.0,020.5,000.0,029.1,022.5,7.4,0000.0,0000.74,0003.08,0000.47
2023-12-29 17:41:00,SystemResetWarning,0835.8,5.00,000.00,021.0,020.5,000.0,029.1,022.5,7.5,0000.0,0000.75,0002.99,0000.48
2023-12-29 17:42:00,SystemResetWarning,0835.7,5.00,000.00,021.0,020.6,000.0,029.1,022.6,7.4,0000.0,0000.79,0003.55,0000.50
2023-12-29 17:43:00,SystemResetWarning,0835.6,5.00,000.00,021.1,020.6,000.0,029.2,022.6,7.7,0000.0,0000.83,0003.93,0000.51
2023-12-29 17:44:00,SystemResetWarning,0835.7,5.00,000.00,021.1,020.6,000.0,029.2,022.6,7.8,0000.0,0000.88,0004.28,0000.52
2023-12-29 17:45:00,SystemResetWarning,0835.6,5.00,000.00,021.1,020.6,000.0,029.2,022.6,8.3,0000.0,0000.90,0004.57,0000.54
2023-12-29 17:46:00,SystemResetWarning,0835.6,5.00,000.00,021.1,020.6,000.0,029.2,022.6,8.4,0000.0,0000.93,0004.59,0000.57
2023-12-29 17:47:00,SystemResetWarning,0835.6,5.00,000.00,021.1,020.6,000.0,029.2,022.6,8.1,0000.0,0000.93,0003.98,0000.58
2023-12-29 17:48:00,SystemResetWarning,0835.6,5.00,000.00,021.2,020.7,000.0,029.3,022.7,8.6,0000.0,0000.95,0003.49,0000.60
2023-12-29 17:49:00,SystemResetWarning,0835.6,5.00,000.00,021.2,020.7,000.0,029.3,022.7,8.0,0000.0,0000.98,0003.55,0000.62
2023-12-29 17:50:00,SystemResetWarning,0835.6,5.00,000.00,021.2,020.7,000.0,029.3,022.7,8.0,0000.0,0000.94,0003.42,0000.62
2023-12-29 17:51:00,SystemResetWarning,0835.5,5.00,000.00,021.2,020.7,000.0,029.3,022.7,8.0,0000.0,0000.93,0003.29,0000.62
2023-12-29 17:52:00,SystemResetWarning,0835.5,4.99,000.00,021.2,020.7,000.0,029.3,022.7,8.1,0000.0,0000.96,0003.26,0000.62
2023-12-29 17:53:00,SystemResetWarning,0835.6,4.99,000.00,021.2,020.8,000.0,029.3,022.8,8.0,0000.0,0000.98,0003.39,0000.62
2023-12-29 17:54:00,SystemResetWarning,0835.5,4.99,000.00,021.3,020.8,000.0,029.4,022.8,8.1,0000.0,0000.98,0002.86,0000.63
2023-12-29 17:55:00,SystemResetWarning,0835.5,4.99,000.00,021.3,020.8,000.0,029.4,022.8,8.2,0000.0,0000.98,0002.74,0000.63
2023-12-29 17:56:00,SystemResetWarning,0835.5,5.00,000.00,021.3,020.8,000.0,029.4,022.8,8.6,0000.0,0000.96,0003.44,0000.62
2023-12-29 17:57:00,SystemResetWarning,0835.5,5.00,000.00,021.3,020.8,000.0,029.4,022.8,8.7,0000.0,0001.01,0004.26,0000.62
2023-12-29 17:58:00,SystemResetWarning,0835.5,5.00,000.00,021.3,020.8,000.0,029.4,022.9,8.4,0000.0,0000.98,0004.14,0000.61
2023-12-29 17:59:00,SystemResetWarning,0835.4,5.00,000.00,021.3,020.8,000.0,029.5,022.9,8.3,0000.0,0000.98,0004.17,0000.59
